Location: Newark
(44.1906°N, 75.9681°W)
Time: 00:33:17
(UTC+00:00)

Envisat - Pass Details

Date: 26 January 2020
Orbit: 764 x 766 km, 98.1° (Epoch: 20 February)

Event Time Altitude Azimuth Distance (km) Brightness Sun altitude
Rises 10:35:45 0° 28° (NNE) 3,241 6.5 -20.1°
Reaches altitude 10° 10:38:46 10° 47° (NE) 2,309 6.0 -19.6°
Maximum altitude 10:42:16 19° 91° (E) 1,784 5.9 -19.0°
Drops below altitude 10° 10:45:45 10° 135° (SE) 2,296 6.2 -18.3°
Sets 10:48:44 0° 153° (SSE) 3,216 6.8 -17.8°
